User: anonymous   Login
Location: Kitchener
(43.4500°N, 80.5000°W)
Time: 15:40:56
(UTC-04:00)
Language:

Cosmos 1939 Rocket - Orbit

View from above orbital plane
View from above orbital plane
View from above satellite
View from above satellite

Ground track
Ground track

The orbit data is extracted from the following two-line orbital elements,

1 19046U 88032B   17233.20810072  .00001088  00000-0  85775-4 0  9990
2 19046  97.5238 278.2216 0037712 112.2280 248.2952 15.02257021582406
Epoch (UTC): 21 August 2017 04:59:39
Eccentricity: 0.0037712
inclination: 97.5238°
perigee height: 534 km
apogee height: 586 km
right ascension of ascending node: 278.2216°
argument of perigee: 112.2280°
revolutions per day: 15.02257021
mean anomaly at epoch: 248.2952°
orbit number at epoch: 58240

The dashed part of the orbit path shows where the satellite is in the earth's shadow,  

DLR